TimeEST,TemperatureF,Dew PointF,Humidity,Sea Level PressureIn,VisibilityMPH,Wind Direction,Wind SpeedMPH,Gust SpeedMPH,PrecipitationIn,Events,Conditions,WindDirDegrees,DateUTC
12:53 AM,19.9,15.1,81,30.43,10.0,North,5.8,-,N/A,,Overcast,10,2013-01-15 05:53:00
1:53 AM,19.9,15.1,81,30.41,10.0,North,5.8,-,N/A,,Overcast,10,2013-01-15 06:53:00
3:53 AM,19.9,15.1,81,30.41,9.0,North,9.2,-,N/A,,Overcast,10,2013-01-15 08:53:00
4:53 AM,19.9,15.1,81,30.40,9.0,NNE,6.9,-,N/A,,Overcast,20,2013-01-15 09:53:00
5:42 AM,19.4,15.8,86,30.36,9.0,NNE,4.6,-,N/A,,Mostly Cloudy,30,2013-01-15 10:42:00
5:53 AM,19.9,15.1,81,30.40,9.0,NE,9.2,-,N/A,,Mostly Cloudy,40,2013-01-15 10:53:00
6:09 AM,19.4,15.8,86,30.36,9.0,NNE,6.9,-,N/A,,Partly Cloudy,30,2013-01-15 11:09:00
6:53 AM,19.0,15.1,85,30.39,9.0,NNE,5.8,-,N/A,,Clear,30,2013-01-15 11:53:00
7:53 AM,19.0,15.1,85,30.40,9.0,NE,5.8,-,N/A,,Clear,50,2013-01-15 12:53:00
8:53 AM,19.9,15.1,81,30.39,7.0,ENE,5.8,-,N/A,,Clear,60,2013-01-15 13:53:00
9:53 AM,21.9,16.0,78,30.41,9.0,NE,6.9,-,N/A,,Clear,50,2013-01-15 14:53:00
10:53 AM,24.1,16.0,71,30.40,10.0,ENE,8.1,-,N/A,,Clear,70,2013-01-15 15:53:00
11:53 AM,26.1,16.0,66,30.35,10.0,ENE,11.5,-,N/A,,Clear,60,2013-01-15 16:53:00
12:53 PM,27.0,16.0,63,30.30,10.0,NE,11.5,-,N/A,,Clear,50,2013-01-15 17:53:00
1:53 PM,28.9,16.0,58,30.27,10.0,ENE,8.1,-,N/A,,Clear,60,2013-01-15 18:53:00
2:53 PM,30.0,16.0,56,30.27,10.0,ENE,6.9,-,N/A,,Clear,60,2013-01-15 19:53:00
3:53 PM,30.0,17.1,59,30.28,10.0,NE,6.9,-,N/A,,Overcast,50,2013-01-15 20:53:00
4:53 PM,30.0,17.1,59,30.26,10.0,East,8.1,-,N/A,,Overcast,80,2013-01-15 21:53:00
5:53 PM,30.0,18.0,61,30.24,10.0,NE,6.9,-,N/A,,Overcast,40,2013-01-15 22:53:00
6:53 PM,28.9,18.0,64,30.23,10.0,NE,4.6,-,N/A,,Partly Cloudy,50,2013-01-15 23:53:00
7:53 PM,28.9,19.9,69,30.22,10.0,NNE,5.8,-,N/A,,Overcast,30,2013-01-16 00:53:00
8:53 PM,28.0,19.9,72,30.19,10.0,NNE,6.9,-,N/A,,Mostly Cloudy,30,2013-01-16 01:53:00
9:53 PM,28.0,19.9,72,30.18,10.0,NE,3.5,-,N/A,,Mostly Cloudy,50,2013-01-16 02:53:00
10:53 PM,28.0,19.9,72,30.14,10.0,ENE,6.9,-,N/A,,Overcast,70,2013-01-16 03:53:00
11:53 PM,26.1,19.9,78,30.12,10.0,NE,3.5,-,N/A,,Clear,50,2013-01-16 04:53:00